QPF
0.00 0.00 0.01 0.02 0.02 0.01 0.01 0.01 0.02 0.01 0.00 0.00 0.00 0.00 0.00 0.00 0.00 0.01 0.02 0.01 0.01 0.01 0.02 0.01 0.01 0.02 0.03 0.04 0.03 0.04 0.05 0.04 0.03 0.04 0.07 0.07 0.06 0.06 0.06 0.05 0.03 0.03 0.03 0.03
0.01 0.00 0.00 0.01 0.00 0.00 0.00 0.01 0.01 0.00 0.00 0.00 0.01 0.01 0.00 0.00 0.00 0.00 0.01 0.01 0.01 0.01 0.01 0.01 0.02 0.02 0.02 0.04 0.04 0.04 0.04 0.03 0.04 0.06 0.09 0.08 0.06 0.05 0.04 0.04 0.04 0.02 0.03 0.02
0.01 0.00 0.00 0.00 0.00 0.00 0.01 0.01 0.01 0.00 0.00 0.00 0.02 0.04 0.02 0.01 0.00 0.00 0.00 0.00 0.01 0.01 0.01 0.01 0.01 0.02 0.03 0.03 0.03 0.04 0.04 0.05 0.06 0.07 0.06 0.07 0.05 0.05 0.05 0.05 0.06 0.04 0.04 0.03
0.01 0.00 0.00 0.00 0.00 0.00 0.01 0.00 0.00 0.00 0.01 0.02 0.02 0.05 0.05 0.01 0.01 0.01 0.00 0.00 0.00 0.00 0.00 0.01 0.02 0.02 0.02 0.03 0.03 0.05 0.05 0.05 0.07 0.06 0.05 0.05 0.06 0.06 0.07 0.09 0.09 0.08 0.06 0.05
0.00 0.00 0.00 0.00 0.00 0.00 0.00 0.00 0.00 0.00 0.00 0.01 0.01 0.03 0.04 0.02 0.04 0.01 0.00 0.00 0.00 0.00 0.00 0.00 0.00 0.01 0.01 0.02 0.02 0.04 0.03 0.04 0.06 0.06 0.05 0.04 0.04 0.04 0.05 0.06 0.07 0.07 0.06 0.06
0.00 0.00 0.00 0.00 0.00 0.00 0.00 0.00 0.00 0.01 0.02 0.05 0.01 0.02 0.04 0.02 0.02 0.01 0.00 0.00 0.00 0.00 0.00 0.00 0.00 0.01 0.01 0.01 0.02 0.03 0.03 0.04 0.04 0.05 0.04 0.03 0.05 0.06 0.07 0.06 0.06 0.07 0.06 0.06
0.01 0.00 0.00 0.00 0.00 0.00 0.01 0.03 0.03 0.03 0.03 0.03 0.01 0.01 0.01 0.00 0.02 0.01 0.00 0.00 0.00 0.00 0.00 0.00 0.00 0.01 0.01 0.01 0.01 0.03 0.03 0.03 0.03 0.04 0.05 0.06 0.06 0.06 0.06 0.04 0.05 0.05 0.05 0.05
0.02 0.01 0.00 0.00 0.01 0.00 0.01 0.01 0.03 0.04 0.04 0.03 0.02 0.02 0.01 0.01 0.01 0.00 0.00 0.00 0.00 0.00 0.02 0.01 0.00 0.00 0.01 0.02 0.02 0.02 0.03 0.03 0.03 0.04 0.06 0.06 0.06 0.04 0.04 0.04 0.03 0.04 0.04 0.04
0.03 0.02 0.01 0.00 0.00 0.00 0.00 0.00 0.01 0.02 0.03 0.04 0.03 0.02 0.01 0.01 0.01 0.01 0.00 0.00 0.00 0.00 0.05 0.04 0.01 0.01 0.01 0.01 0.01 0.02 0.04 0.03 0.02 0.02 0.03 0.04 0.04 0.05 0.04 0.04 0.04 0.04 0.03 0.03
0.01 0.01 0.02 0.01 0.00 0.00 0.00 0.00 0.01 0.03 0.04 0.04 0.04 0.06 0.04 0.02 0.03 0.04 0.03 0.01 0.00 0.01 0.04 0.03 0.02 0.01 0.01 0.02 0.01 0.02 0.03 0.05 0.05 0.04 0.04 0.04 0.05 0.06 0.05 0.03 0.02 0.01 0.01 0.03
0.00 0.00 0.01 0.00 0.00 0.01 0.00 0.00 0.00 0.02 0.02 0.03 0.07 0.07 0.03 0.02 0.03 0.03 0.01 0.00 0.01 0.01 0.02 0.02 0.02 0.01 0.01 0.03 0.02 0.02 0.04 0.05 0.05 0.04 0.04 0.05 0.04 0.05 0.04 0.03 0.03 0.03 0.03 0.04
0.00 0.00 0.01 0.00 0.00 0.00 0.00 0.00 0.00 0.03 0.02 0.03 0.04 0.04 0.01 0.01 0.00 0.00 0.01 0.01 0.01 0.02 0.02 0.01 0.01 0.01 0.02 0.03 0.03 0.02 0.04 0.07 0.06 0.04 0.03 0.02 0.03 0.04 0.03 0.03 0.03 0.02 0.03 0.03
0.00 0.00 0.01 0.02 0.02 0.01 0.01 0.01 0.00 0.01 0.03 0.04 0.06 0.05 0.01 0.00 0.00 0.02 0.02 0.04 0.03 0.02 0.01 0.01 0.02 0.04 0.04 0.03 0.03 0.02 0.04 0.06 0.07 0.05 0.03 0.02 0.02 0.02 0.03 0.02 0.02 0.02 0.02 0.02
0.00 0.01 0.01 0.02 0.02 0.02 0.01 0.01 0.00 0.01 0.05 0.04 0.06 0.06 0.02 0.01 0.02 0.07 0.06 0.03 0.02 0.02 0.02 0.03 0.04 0.07 0.04 0.03 0.03 0.03 0.03 0.03 0.04 0.07 0.09 0.07 0.04 0.04 0.03 0.03 0.02 0.02 0.01 0.01
0.00 0.01 0.00 0.00 0.00 0.00 0.00 0.00 0.00 0.00 0.01 0.03 0.04 0.04 0.03 0.04 0.06 0.07 0.03 0.02 0.03 0.04 0.06 0.06 0.04 0.03 0.05 0.05 0.05 0.04 0.03 0.03 0.04 0.04 0.05 0.05 0.05 0.05 0.04 0.03 0.03 0.03 0.02 0.02
0.00 0.00 0.00 0.00 0.00 0.00 0.01 0.01 0.00 0.00 0.00 0.00 0.01 0.05 0.06 0.06 0.03 0.03 0.02 0.02 0.02 0.03 0.02 0.02 0.02 0.02 0.04 0.07 0.08 0.07 0.05 0.03 0.03 0.02 0.03 0.04 0.04 0.05 0.03 0.02 0.03 0.02 0.02 0.02
0.00 0.01 0.00 0.00 0.00 0.01 0.02 0.01 0.01 0.01 0.00 0.01 0.02 0.05 0.03 0.02 0.02 0.02 0.03 0.03 0.03 0.02 0.02 0.01 0.01 0.01 0.02 0.03 0.05 0.07 0.07 0.05 0.03 0.02 0.03 0.04 0.05 0.04 0.02 0.02 0.01 0.01 0.02 0.03
0.00 0.01 0.00 0.00 0.00 0.01 0.02 0.01 0.00 0.00 0.01 0.01 0.02 0.02 0.01 0.02 0.02 0.01 0.02 0.03 0.03 0.02 0.01 0.02 0.02 0.01 0.01 0.01 0.02 0.04 0.07 0.07 0.06 0.04 0.04 0.03 0.03 0.04 0.03 0.02 0.01 0.02 0.03 0.04
0.00 0.01 0.01 0.01 0.01 0.02 0.03 0.02 0.01 0.01 0.02 0.02 0.01 0.02 0.01 0.02 0.03 0.04 0.02 0.03 0.03 0.03 0.02 0.01 0.02 0.01 0.01 0.01 0.01 0.02 0.04 0.06 0.08 0.08 0.07 0.05 0.04 0.04 0.04 0.04 0.04 0.04 0.05 0.05
0.00 0.02 0.02 0.01 0.02 0.05 0.05 0.03 0.01 0.01 0.03 0.02 0.01 0.03 0.04 0.04 0.06 0.07 0.05 0.06 0.06 0.05 0.05 0.01 0.01 0.01 0.01 0.01 0.01 0.01 0.02 0.03 0.06 0.08 0.08 0.07 0.06 0.06 0.06 0.07 0.08 0.07 0.07 0.06
0.00 0.01 0.02 0.02 0.03 0.05 0.04 0.02 0.00 0.03 0.04 0.01 0.01 0.02 0.05 0.07 0.06 0.07 0.07 0.08 0.05 0.03 0.02 0.02 0.01 0.02 0.03 0.02 0.01 0.01 0.02 0.03 0.04 0.05 0.06 0.07 0.08 0.08 0.09 0.08 0.07 0.07 0.08 0.08
0.00 0.01 0.01 0.01 0.02 0.03 0.01 0.01 0.01 0.02 0.01 0.01 0.03 0.04 0.04 0.05 0.06 0.06 0.04 0.03 0.02 0.02 0.02 0.03 0.03 0.03 0.03 0.03 0.02 0.03 0.03 0.03 0.05 0.07 0.10 0.10 0.09 0.06 0.07 0.07 0.06 0.07 0.07 0.07
0.00 0.00 0.01 0.01 0.01 0.01 0.00 0.00 0.01 0.01 0.01 0.01 0.02 0.02 0.02 0.02 0.03 0.02 0.01 0.01 0.01 0.02 0.03 0.04 0.04 0.04 0.03 0.03 0.03 0.04 0.03 0.04 0.06 0.06 0.07 0.07 0.05 0.04 0.04 0.05 0.06 0.07 0.07 0.08
0.02 0.01 0.01 0.01 0.00 0.00 0.00 0.01 0.01 0.01 0.01 0.01 0.01 0.01 0.01 0.01 0.01 0.01 0.01 0.01 0.01 0.01 0.02 0.03 0.04 0.04 0.03 0.03 0.03 0.04 0.05 0.05 0.04 0.04 0.04 0.05 0.04 0.03 0.03 0.04 0.06 0.07 0.09 0.10
0.04 0.02 0.03 0.03 0.01 0.01 0.01 0.01 0.01 0.00 0.00 0.00 0.00 0.00 0.01 0.01 0.01 0.01 0.01 0.01 0.01 0.01 0.02 0.03 0.04 0.05 0.06 0.04 0.03 0.03 0.04 0.05 0.05 0.04 0.04 0.03 0.04 0.03 0.03 0.03 0.04 0.04 0.05 0.07
0.03 0.02 0.02 0.03 0.03 0.02 0.02 0.01 0.00 0.00 0.00 0.00 0.00 0.01 0.02 0.02 0.01 0.01 0.01 0.01 0.01 0.02 0.02 0.03 0.05 0.05 0.06 0.06 0.05 0.05 0.06 0.05 0.04 0.04 0.04 0.04 0.04 0.03 0.03 0.04 0.03 0.03 0.03 0.04
MSLP
1005.10 1005.58 1006.01 1006.42 1006.84 1007.26 1007.67 1008.03 1008.29 1008.40 1008.35 1008.12 1007.78 1007.39 1007.06 1006.87 1006.90 1007.18 1007.70 1008.40 1009.19 1010.01 1010.75 1011.38 1011.88 1012.26 1012.59 1012.88 1013.20 1013.55 1013.92 1014.28 1014.58 1014.76 1014.81 1014.72 1014.50 1014.22 1013.93 1013.70 1013.58 1013.59 1013.73 1013.99
1005.29 1005.50 1005.67 1005.87 1006.15 1006.54 1007.02 1007.52 1007.95 1008.24 1008.31 1008.15 1007.79 1007.31 1006.83 1006.47 1006.33 1006.48 1006.92 1007.60 1008.44 1009.33 1010.16 1010.88 1011.43 1011.84 1012.14 1012.40 1012.68 1013.00 1013.38 1013.78 1014.15 1014.44 1014.60 1014.60 1014.46 1014.20 1013.90 1013.62 1013.43 1013.38 1013.47 1013.70
1005.22 1005.15 1005.06 1005.06 1005.24 1005.62 1006.19 1006.85 1007.49 1007.97 1008.20 1008.12 1007.76 1007.19 1006.56 1006.01 1005.68 1005.68 1006.01 1006.66 1007.53 1008.50 1009.44 1010.26 1010.90 1011.36 1011.68 1011.93 1012.18 1012.49 1012.86 1013.29 1013.73 1014.11 1014.36 1014.46 1014.39 1014.17 1013.87 1013.56 1013.32 1013.19 1013.22 1013.40
1004.92 1004.62 1004.33 1004.20 1004.32 1004.75 1005.45 1006.30 1007.16 1007.84 1008.22 1008.22 1007.83 1007.16 1006.34 1005.57 1005.02 1004.81 1005.01 1005.58 1006.45 1007.48 1008.53 1009.47 1010.22 1010.77 1011.15 1011.42 1011.67 1011.96 1012.34 1012.78 1013.27 1013.72 1014.06 1014.25 1014.26 1014.10 1013.82 1013.50 1013.21 1013.02 1012.98 1013.09
1004.46 1004.02 1003.62 1003.43 1003.59 1004.13 1005.00 1006.07 1007.15 1008.03 1008.53 1008.57 1008.13 1007.31 1006.26 1005.22 1004.39 1003.93 1003.93 1004.38 1005.21 1006.28 1007.42 1008.48 1009.36 1010.03 1010.49 1010.81 1011.08 1011.38 1011.75 1012.21 1012.73 1013.23 1013.66 1013.94 1014.04 1013.95 1013.71 1013.39 1013.08 1012.84 1012.73 1012.77
1003.91 1003.41 1003.01 1002.88 1003.16 1003.86 1004.94 1006.24 1007.52 1008.56 1009.15 1009.19 1008.65 1007.64 1006.34 1004.99 1003.85 1003.09 1002.85 1003.13 1003.87 1004.93 1006.14 1007.31 1008.32 1009.11 1009.68 1010.08 1010.39 1010.69 1011.07 1011.54 1012.07 1012.63 1013.12 1013.49 1013.68 1013.67 1013.49 1013.21 1012.89 1012.61 1012.44 1012.42
1003.31 1002.85 1002.54 1002.56 1003.01 1003.92 1005.22 1006.72 1008.18 1009.33 1009.97 1009.97 1009.31 1008.09 1006.52 1004.86 1003.39 1002.33 1001.82 1001.90 1002.52 1003.54 1004.77 1006.02 1007.15 1008.06 1008.74 1009.21 1009.57 1009.91 1010.29 1010.76 1011.31 1011.89 1012.44 1012.88 1013.16 1013.24 1013.14 1012.91 1012.61 1012.32 1012.11 1012.03
1002.66 1002.31 1002.16 1002.36 1003.02 1004.15 1005.64 1007.31 1008.88 1010.11 1010.75 1010.69 1009.90 1008.50 1006.70 1004.77 1003.01 1001.67 1000.91 1000.80 1001.27 1002.22 1003.44 1004.73 1005.94 1006.94 1007.71 1008.27 1008.68 1009.04 1009.43 1009.89 1010.45 1011.05 1011.64 1012.14 1012.50 1012.67 1012.66 1012.49 1012.23 1011.96 1011.73 1011.62
1001.96 1001.74 1001.76 1002.16 1003.01 1004.31 1005.95 1007.72 1009.36 1010.60 1011.22 1011.10 1010.23 1008.70 1006.74 1004.63 1002.68 1001.13 1000.18 999.89 1000.23 1001.08 1002.25 1003.55 1004.79 1005.85 1006.68 1007.30 1007.76 1008.14 1008.53 1008.99 1009.54 1010.14 1010.76 1011.31 1011.74 1011.99 1012.06 1011.97 1011.77 1011.53 1011.32 1011.19
1001.17 1001.08 1001.26 1001.81 1002.80 1004.21 1005.91 1007.70 1009.33 1010.55 1011.14 1010.99 1010.08 1008.53 1006.53 1004.37 1002.35 1000.72 999.65 999.24 999.47 1000.21 1001.31 1002.56 1003.78 1004.86 1005.72 1006.37 1006.85 1007.25 1007.65 1008.10 1008.63 1009.23 1009.86 1010.44 1010.92 1011.24 1011.39 1011.38 1011.25 1011.07 1010.89 1010.78
1000.31 1000.33 1000.61 1001.25 1002.29 1003.70 1005.36 1007.09 1008.64 1009.79 1010.35 1010.20 1009.35 1007.88 1005.99 1003.93 1001.99 1000.40 999.33 998.87 999.01 999.65 1000.65 1001.81 1002.97 1004.01 1004.86 1005.51 1006.00 1006.41 1006.81 1007.25 1007.77 1008.37 1008.99 1009.58 1010.09 1010.47 1010.68 1010.75 1010.69 1010.58 1010.46 1010.39
999.47 999.53 999.85 1000.51 1001.51 1002.83 1004.36 1005.93 1007.34 1008.38 1008.90 1008.79 1008.06 1006.78 1005.12 1003.30 1001.57 1000.13 999.16 998.72 998.81 999.35 1000.22 1001.26 1002.31 1003.27 1004.07 1004.70 1005.19 1005.61 1006.01 1006.46 1006.97 1007.56 1008.17 1008.77 1009.29 1009.70 1009.97 1010.10 1010.12 1010.08 1010.03 1010.01
998.74 998.82 999.13 999.72 1000.60 1001.74 1003.05 1004.39 1005.59 1006.49 1006.96 1006.92 1006.35 1005.33 1003.98 1002.50 1001.07 999.88 999.07 998.69 998.76 999.21 999.94 1000.82 1001.73 1002.57 1003.29 1003.88 1004.37 1004.80 1005.22 1005.69 1006.21 1006.79 1007.40 1008.00 1008.53 1008.96 1009.27 1009.45 1009.53 1009.56 1009.57 1009.62
998.25 998.32 998.58 999.06 999.76 1000.65 1001.67 1002.72 1003.67 1004.39 1004.79 1004.80 1004.42 1003.67 1002.68 1001.57 1000.50 999.60 998.98 998.69 998.75 999.10 999.68 1000.38 1001.12 1001.83 1002.46 1003.01 1003.49 1003.95 1004.41 1004.91 1005.46 1006.06 1006.67 1007.26 1007.80 1008.24 1008.57 1008.79 1008.92 1009.01 1009.08 1009.18
998.10 998.15 998.34 998.67 999.16 999.77 1000.47 1001.19 1001.85 1002.37 1002.66 1002.70 1002.46 1001.98 1001.33 1000.58 999.86 999.24 998.81 998.61 998.65 998.90 999.32 999.85 1000.42 1000.99 1001.53 1002.04 1002.53 1003.02 1003.54 1004.10 1004.70 1005.33 1005.96 1006.55 1007.09 1007.53 1007.87 1008.12 1008.29 1008.42 1008.54 1008.69
998.28 998.32 998.43 998.62 998.89 999.22 999.59 999.98 1000.33 1000.61 1000.77 1000.79 1000.66 1000.39 1000.01 999.58 999.15 998.79 998.52 998.40 998.41 998.57 998.84 999.19 999.60 1000.04 1000.51 1000.99 1001.50 1002.05 1002.65 1003.28 1003.94 1004.62 1005.27 1005.88 1006.41 1006.85 1007.20 1007.46 1007.66 1007.82 1007.98 1008.16
998.72 998.75 998.79 998.85 998.92 998.98 999.05 999.11 999.17 999.20 999.21 999.17 999.09 998.96 998.79 998.60 998.41 998.24 998.11 998.04 998.03 998.10 998.24 998.45 998.73 999.07 999.48 999.96 1000.51 1001.13 1001.80 1002.52 1003.26 1003.98 1004.66 1005.28 1005.82 1006.25 1006.59 1006.86 1007.07 1007.26 1007.44 1007.64
999.25 999.26 999.24 999.19 999.08 998.92 998.72 998.50 998.29 998.10 997.94 997.83 997.75 997.70 997.68 997.66 997.65 997.63 997.61 997.59 997.58 997.59 997.64 997.75 997.94 998.22 998.61 999.10 999.69 1000.38 1001.14 1001.93 1002.73 1003.50 1004.21 1004.84 1005.37 1005.80 1006.13 1006.40 1006.61 1006.81 1007.01 1007.24
999.67 999.63 999.55 999.39 999.13 998.79 998.38 997.94 997.51 997.14 996.85 996.66 996.57 996.58 996.66 996.78 996.91 997.03 997.11 997.16 997.18 997.18 997.20 997.27 997.42 997.68 998.06 998.58 999.22 999.97 1000.78 1001.64 1002.48 1003.28 1004.00 1004.63 1005.14 1005.56 1005.88 1006.14 1006.36 1006.57 1006.78 1007.01
999.81 999.70 999.52 999.26 998.88 998.39 997.82 997.22 996.65 996.15 995.77 995.54 995.46 995.53 995.71 995.97 996.24 996.50 996.71 996.86 996.95 997.01 997.05 997.14 997.30 997.57 997.98 998.53 999.21 999.99 1000.85 1001.72 1002.58 1003.38 1004.09 1004.69 1005.19 1005.58 1005.88 1006.13 1006.35 1006.56 1006.79 1007.03
999.61 999.37 999.07 998.68 998.19 997.59 996.92 996.23 995.57 995.02 994.62 994.40 994.38 994.54 994.84 995.25 995.69 996.12 996.49 996.79 997.01 997.17 997.31 997.46 997.68 997.99 998.43 999.00 999.70 1000.49 1001.35 1002.21 1003.05 1003.81 1004.48 1005.05 1005.50 1005.86 1006.14 1006.38 1006.59 1006.81 1007.03 1007.29
999.11 998.69 998.23 997.71 997.09 996.41 995.67 994.94 994.28 993.74 993.38 993.24 993.32 993.62 994.08 994.67 995.31 995.94 996.51 997.00 997.40 997.71 997.98 998.23 998.53 998.90 999.38 999.96 1000.65 1001.42 1002.23 1003.04 1003.82 1004.52 1005.12 1005.63 1006.03 1006.34 1006.60 1006.81 1007.02 1007.23 1007.46 1007.72
998.44 997.81 997.17 996.49 995.77 995.00 994.24 993.51 992.88 992.41 992.15 992.14 992.37 992.84 993.49 994.28 995.14 995.99 996.79 997.49 998.08 998.58 998.99 999.37 999.75 1000.18 1000.67 1001.25 1001.90 1002.61 1003.35 1004.08 1004.76 1005.37 1005.90 1006.32 1006.66 1006.93 1007.14 1007.33 1007.53 1007.73 1007.96 1008.22
997.79 996.94 996.11 995.28 994.45 993.63 992.85 992.16 991.60 991.24 991.11 991.24 991.65 992.30 993.15 994.15 995.22 996.29 997.30 998.21 999.00 999.66 1000.22 1000.70 1001.16 1001.62 1002.12 1002.66 1003.25 1003.88 1004.52 1005.14 1005.72 1006.23 1006.66 1007.00 1007.27 1007.48 1007.66 1007.82 1008.00 1008.19 1008.42 1008.67
997.33 996.29 995.30 994.34 993.43 992.57 991.79 991.14 990.67 990.42 990.43 990.72 991.29 992.11 993.14 994.32 995.57 996.82 998.00 999.08 1000.02 1000.81 1001.48 1002.05 1002.55 1003.02 1003.49 1003.98 1004.50 1005.03 1005.56 1006.06 1006.53 1006.93 1007.27 1007.53 1007.74 1007.90 1008.04 1008.17 1008.32 1008.50 1008.71 1008.95
997.15 996.00 994.90 993.86 992.90 992.03 991.28 990.69 990.31 990.16 990.29 990.70 991.40 992.34 993.50 994.80 996.16 997.52 998.82 1000.00 1001.03 1001.90 1002.63 1003.23 1003.74 1004.20 1004.62 1005.04 1005.47 1005.90 1006.31 1006.71 1007.07 1007.38 1007.63 1007.83 1007.98 1008.10 1008.21 1008.31 1008.44 1008.60 1008.79 1009.00
Thickness
5855 5841 5833 5842 5852 5853 5853 5849 5845 5856 5877 5871 5861 5856 5864 5873 5870 5863 5859 5856 5852 5850 5852 5850 5846 5841 5834 5828 5823 5818 5814 5811 5808 5804 5800 5797 5794 5794 5794 5794 5793 5791 5790 5789
5838 5833 5852 5863 5865 5862 5857 5848 5848 5862 5879 5870 5857 5856 5867 5872 5870 5868 5862 5858 5856 5852 5850 5847 5844 5840 5834 5827 5822 5818 5814 5812 5809 5805 5802 5799 5797 5795 5794 5793 5791 5790 5789 5788
5830 5848 5866 5862 5857 5851 5852 5849 5852 5858 5866 5868 5854 5843 5854 5869 5874 5873 5871 5867 5863 5856 5850 5845 5843 5839 5835 5828 5824 5821 5816 5813 5810 5807 5803 5800 5796 5793 5792 5790 5789 5789 5788 5787
5840 5860 5861 5856 5854 5852 5842 5865 5865 5861 5847 5839 5846 5814 5838 5856 5862 5864 5867 5867 5864 5860 5855 5849 5844 5840 5836 5832 5828 5823 5817 5813 5810 5807 5803 5798 5792 5788 5789 5789 5788 5788 5787 5786
5839 5854 5853 5848 5857 5861 5857 5873 5866 5859 5845 5834 5841 5824 5828 5850 5845 5857 5866 5868 5866 5864 5859 5852 5848 5843 5841 5837 5831 5824 5818 5813 5810 5807 5803 5799 5795 5792 5791 5789 5787 5786 5786 5786
5850 5866 5866 5862 5869 5871 5870 5864 5857 5850 5836 5811 5829 5824 5821 5846 5850 5859 5869 5870 5868 5866 5860 5855 5851 5846 5841 5838 5833 5826 5818 5812 5810 5806 5803 5799 5795 5792 5789 5787 5784 5783 5784 5784
5833 5850 5867 5871 5855 5862 5860 5838 5815 5808 5805 5810 5838 5833 5834 5862 5870 5871 5872 5870 5869 5865 5860 5854 5848 5842 5839 5836 5831 5826 5818 5811 5809 5806 5803 5800 5796 5793 5789 5786 5784 5783 5782 5781
5810 5816 5848 5859 5851 5847 5848 5840 5810 5795 5800 5814 5827 5822 5846 5873 5879 5880 5878 5875 5869 5863 5859 5852 5848 5843 5838 5835 5830 5824 5817 5812 5809 5805 5802 5800 5797 5794 5791 5789 5787 5784 5783 5782
5818 5817 5852 5861 5867 5857 5842 5840 5846 5829 5821 5807 5811 5824 5845 5868 5867 5869 5870 5869 5862 5860 5857 5853 5849 5845 5840 5835 5830 5825 5818 5812 5808 5805 5801 5798 5796 5793 5791 5789 5788 5786 5783 5783
5837 5820 5843 5855 5860 5860 5857 5851 5838 5822 5799 5792 5801 5811 5821 5842 5850 5857 5857 5859 5858 5856 5853 5851 5848 5845 5841 5836 5831 5825 5818 5812 5808 5805 5801 5798 5795 5792 5790 5788 5785 5784 5783 5781
5846 5826 5831 5842 5834 5833 5840 5839 5835 5828 5823 5801 5790 5807 5845 5846 5853 5852 5854 5858 5855 5853 5849 5847 5846 5844 5840 5835 5829 5822 5816 5810 5806 5803 5800 5797 5793 5791 5789 5786 5784 5782 5781 5779
5844 5832 5820 5833 5852 5858 5848 5842 5836 5813 5809 5818 5805 5808 5859 5860 5862 5857 5852 5852 5852 5851 5847 5846 5843 5840 5835 5831 5826 5820 5815 5809 5805 5802 5798 5794 5792 5789 5786 5784 5782 5781 5778 5776
5836 5821 5802 5809 5827 5841 5838 5842 5842 5836 5825 5815 5804 5805 5848 5854 5853 5850 5846 5845 5844 5842 5840 5839 5835 5831 5828 5826 5822 5818 5813 5809 5804 5800 5796 5792 5789 5787 5784 5782 5780 5778 5775 5773
5835 5817 5807 5796 5808 5825 5826 5834 5839 5831 5816 5811 5813 5812 5827 5835 5837 5838 5836 5837 5835 5834 5833 5830 5826 5823 5822 5820 5817 5814 5810 5808 5804 5799 5793 5788 5786 5784 5782 5779 5777 5774 5771 5769
5828 5808 5812 5820 5830 5832 5831 5831 5835 5830 5827 5817 5817 5815 5821 5829 5834 5833 5832 5832 5828 5824 5824 5823 5819 5816 5815 5813 5811 5809 5806 5803 5800 5795 5790 5786 5784 5782 5779 5776 5773 5770 5767 5765
5820 5805 5806 5807 5821 5824 5820 5828 5833 5832 5833 5828 5825 5819 5834 5833 5834 5830 5828 5825 5820 5818 5819 5819 5816 5812 5809 5806 5805 5802 5800 5798 5795 5791 5787 5784 5781 5778 5775 5772 5769 5765 5763 5760
5807 5799 5790 5791 5809 5808 5798 5817 5824 5825 5830 5827 5813 5816 5828 5824 5821 5821 5822 5822 5818 5817 5816 5814 5812 5809 5806 5803 5800 5797 5795 5793 5789 5785 5782 5779 5777 5773 5771 5769 5765 5761 5758 5756
5800 5793 5788 5785 5786 5768 5802 5833 5831 5823 5824 5826 5824 5822 5823 5822 5822 5823 5823 5819 5815 5814 5813 5812 5810 5807 5804 5802 5798 5794 5791 5787 5783 5780 5777 5775 5772 5768 5766 5763 5759 5756 5754 5750
5805 5787 5777 5774 5768 5775 5801 5818 5821 5813 5806 5821 5817 5817 5819 5820 5815 5810 5816 5815 5811 5811 5811 5810 5809 5806 5802 5798 5794 5789 5784 5781 5777 5774 5772 5770 5767 5763 5760 5757 5754 5752 5749 5745
5796 5788 5772 5767 5757 5754 5782 5812 5824 5813 5790 5812 5814 5809 5809 5806 5788 5790 5806 5809 5806 5805 5804 5803 5803 5800 5795 5792 5789 5782 5778 5773 5770 5769 5767 5765 5762 5758 5755 5752 5750 5747 5744 5740
5768 5767 5764 5761 5754 5765 5795 5810 5810 5776 5776 5804 5807 5803 5799 5792 5788 5793 5799 5799 5798 5797 5796 5796 5794 5790 5786 5785 5781 5775 5771 5768 5766 5764 5761 5758 5756 5753 5750 5748 5745 5742 5739 5735
5758 5757 5755 5757 5749 5754 5793 5797 5783 5778 5793 5798 5798 5798 5795 5792 5792 5790 5789 5788 5788 5787 5786 5785 5781 5779 5779 5777 5773 5768 5764 5763 5761 5757 5754 5751 5749 5748 5746 5742 5739 5736 5733 5728
5760 5762 5760 5760 5758 5774 5787 5786 5788 5791 5786 5788 5790 5791 5790 5784 5781 5780 5778 5778 5778 5776 5775 5773 5770 5768 5768 5767 5765 5759 5757 5756 5752 5748 5745 5743 5742 5740 5738 5735 5731 5728 5726 5722
5755 5765 5756 5753 5761 5770 5775 5778 5779 5782 5779 5784 5784 5783 5782 5775 5774 5772 5769 5768 5766 5764 5764 5762 5759 5756 5755 5756 5756 5753 5750 5748 5743 5739 5737 5735 5733 5731 5729 5727 5725 5722 5719 5715
5739 5746 5742 5743 5754 5759 5762 5766 5770 5772 5775 5775 5775 5775 5772 5769 5766 5763 5760 5758 5756 5754 5753 5752 5748 5745 5745 5745 5744 5744 5741 5738 5734 5730 5728 5726 5725 5723 5720 5717 5715 5713 5710 5707
5731 5730 5730 5731 5744 5745 5748 5757 5762 5762 5762 5763 5763 5761 5762 5760 5756 5754 5751 5750 5748 5745 5744 5742 5739 5737 5735 5735 5733 5733 5732 5729 5725 5722 5720 5718 5717 5714 5711 5708 5704 5701 5700 5697